Weather History for Aurora, NE

Change the Weather History Date:

Tuesday, March 5, 2013

  Actual Average Record
Temperature  
Mean Temperature 28 °F -  
Max Temperature 36 °F 41 °F 73 °F (1987)
Min Temperature 20 °F 22 °F -5 °F (1978)
Degree Days  
Heating Degree Days 36    
Moisture  
Dew Point 16 °F    
Average Humidity 62    
Maximum Humidity 86    
Minimum Humidity 44    
Precipitation  
Precipitation 0.00 in - - ()
Sea Level Pressure  
Sea Level Pressure 30.24 in    
Wind  
Wind Speed 22 mph (NNW)    
Max Wind Speed 36 mph    
Max Gust Speed 43 mph    
Visibility 10 miles    
Events      
Averages and records for this station are not official NWS values.
T = Trace of Precipitation, MM = Missing Value Source: NWS Daily Summary

Daily Weather History Graph

Daily Weather History Graph

Search for Another Location

Airport:

Trip Planner

Search our weather history database for the weather conditions in past years. The results will help you decide how hot, cold, wet, or windy it might be!

Date:

Astronomy

Mar. 05, 2013 Rise Set
Actual Time 6:59 AM CST 6:27 PM CST
Civil Twilight 6:31 AM CST 6:55 PM CST
Nautical Twilight 6:00 AM CST 7:27 PM CST
Astronomical Twilight 5:28 AM CST 7:59 PM CST
Moon 2:14 AM CST (3/5) 12:06 PM CST (3/5)
Length of Visible Light 12h 23m
Length of Day
11h 28m
Last Quarter, 40% of the Moon is Illuminated
Mar 5
Last Quarter
Mar 11
New
Mar 19
First Quarter
Mar 27
Full
Apr 2
Last Quarter

Hourly Weather History & Observations

Time (CST) Temp. Windchill Dew Point Humidity Pressure Visibility Wind Dir Wind Speed Gust Speed Precip Events Conditions
12:15 AM 28.0 °F 16.5 °F 16.3 °F 62% 30.09 in 10.0 mi NW 15.0 mph - N/A   Clear
12:35 AM 28.0 °F 13.6 °F 15.6 °F 60% 30.09 in 10.0 mi NW 24.2 mph 32.2 mph N/A   Clear
12:55 AM 27.5 °F 12.9 °F 16.0 °F 62% 30.09 in 10.0 mi NW 24.2 mph 32.2 mph N/A   Clear
1:15 AM 27.0 °F 12.2 °F 14.7 °F 60% 30.10 in 10.0 mi NW 24.2 mph 34.5 mph N/A   Clear
1:35 AM 26.4 °F 11.5 °F 14.7 °F 61% 30.10 in 10.0 mi NW 24.2 mph 36.8 mph N/A   Clear
1:55 AM 26.2 °F 10.9 °F 14.5 °F 61% 30.10 in 10.0 mi NW 25.3 mph 32.2 mph N/A   Clear
2:15 AM 25.7 °F 9.9 °F 14.9 °F 64% 30.10 in 10.0 mi NW 26.5 mph 33.4 mph N/A   Clear
2:35 AM 25.5 °F 10.0 °F 14.7 °F 64% 30.10 in 10.0 mi NW 25.3 mph 31.1 mph N/A   Clear
2:55 AM 25.3 °F 9.1 °F 13.8 °F 62% 30.11 in 10.0 mi NW 27.6 mph 35.7 mph N/A   Clear
3:15 AM 24.8 °F 9.6 °F 14.0 °F 64% 30.11 in 10.0 mi NW 23.0 mph 29.9 mph N/A   Clear
3:35 AM 25.0 °F 10.2 °F 13.8 °F 63% 30.11 in 10.0 mi NW 21.9 mph 31.1 mph N/A   Clear
3:55 AM 25.2 °F 9.8 °F 14.4 °F 64% 30.12 in 10.0 mi NW 24.2 mph 32.2 mph N/A   Scattered Clouds
4:15 AM 24.8 °F 11.1 °F 14.4 °F 65% 30.12 in 10.0 mi NW 18.4 mph - N/A   Scattered Clouds
4:35 AM 25.2 °F 10.4 °F 14.4 °F 64% 30.12 in 10.0 mi NW 21.9 mph 26.5 mph N/A   Scattered Clouds
4:55 AM 24.8 °F 11.1 °F 14.4 °F 65% 30.13 in 10.0 mi NW 18.4 mph - N/A   Scattered Clouds
5:15 AM 24.8 °F 9.6 °F 14.5 °F 65% 30.13 in 10.0 mi NW 23.0 mph 31.1 mph N/A   Clear
5:35 AM 24.8 °F 10.0 °F 15.1 °F 67% 30.13 in 10.0 mi NW 21.9 mph 28.8 mph N/A   Clear
6:15 AM 24.8 °F 7.3 °F 14.0 °F 64% 30.15 in 10.0 mi NW 32.2 mph 40.3 mph N/A   Clear
6:35 AM 24.4 °F 8.8 °F 14.0 °F 65% 30.16 in 10.0 mi NW 24.2 mph 34.5 mph N/A   Clear
7:15 AM 23.9 °F 6.6 °F 14.2 °F 66% 30.18 in 10.0 mi NW 29.9 mph 34.5 mph N/A   Clear
7:35 AM 23.9 °F 6.4 °F 14.5 °F 67% 30.18 in 10.0 mi NW 31.1 mph 38.0 mph N/A   Clear
7:55 AM 24.6 °F 8.2 °F 14.5 °F 66% 30.19 in 10.0 mi NW 27.6 mph 36.8 mph N/A   Clear
8:15 AM 25.0 °F 8.1 °F 14.7 °F 65% 30.20 in 10.0 mi NNW 29.9 mph 38.0 mph N/A   Clear
8:35 AM 25.5 °F 9.1 °F 14.9 °F 64% 30.20 in 10.0 mi NW 28.8 mph 39.1 mph N/A   Clear
8:55 AM 26.1 °F 9.8 °F 15.3 °F 64% 30.22 in 10.0 mi NNW 28.8 mph 38.0 mph N/A   Scattered Clouds
9:15 AM 26.6 °F 9.1 °F 15.1 °F 62% 30.23 in 10.0 mi NNW 35.7 mph 42.6 mph N/A   Scattered Clouds
9:35 AM 27.3 °F 11.0 °F 15.6 °F 61% 30.24 in 10.0 mi NNW 31.1 mph 40.3 mph N/A   Mostly Cloudy
9:55 AM 26.8 °F 9.8 °F 15.4 °F 62% 30.25 in 10.0 mi NNW 33.4 mph 40.3 mph N/A   Mostly Cloudy
10:15 AM 26.6 °F 9.8 °F 15.4 °F 63% 30.25 in 10.0 mi NNW 32.2 mph 39.1 mph N/A   Overcast
10:35 AM 27.5 °F 11.8 °F 15.8 °F 61% 30.26 in 10.0 mi NNW 28.8 mph 40.3 mph N/A   Overcast
10:55 AM 28.8 °F 13.7 °F 16.9 °F 61% 30.26 in 10.0 mi NNW 27.6 mph 36.8 mph N/A   Overcast
11:15 AM 28.9 °F 14.0 °F 16.5 °F 60% 30.26 in 10.0 mi NNW 27.6 mph 38.0 mph N/A   Mostly Cloudy
11:35 AM 30.4 °F 16.2 °F 17.4 °F 59% 30.27 in 10.0 mi NNW 26.5 mph 39.1 mph N/A   Scattered Clouds
11:55 AM 30.0 °F 15.4 °F 17.1 °F 59% 30.27 in 10.0 mi NNW 27.6 mph 36.8 mph N/A   Scattered Clouds
12:15 PM 31.8 °F 17.6 °F 17.6 °F 56% 30.27 in 10.0 mi NNW 28.8 mph 35.7 mph N/A   Scattered Clouds
12:35 PM 32.2 °F 18.6 °F 17.6 °F 55% 30.27 in 10.0 mi NNW 26.5 mph 35.7 mph N/A   Scattered Clouds
12:55 PM 32.7 °F 19.9 °F 17.6 °F 54% 30.28 in 10.0 mi NNW 24.2 mph 29.9 mph N/A   Scattered Clouds
1:15 PM 33.3 °F 21.2 °F 17.1 °F 51% 30.28 in 10.0 mi NNW 21.9 mph 33.4 mph N/A   Mostly Cloudy
1:35 PM 33.8 °F 21.6 °F 17.1 °F 50% 30.27 in 10.0 mi NW 23.0 mph 32.2 mph N/A   Scattered Clouds
1:55 PM 34.9 °F 22.5 °F 16.9 °F 48% 30.27 in 10.0 mi NNW 25.3 mph 32.2 mph N/A   Scattered Clouds
2:15 PM 34.9 °F 22.5 °F 17.1 °F 48% 30.28 in 10.0 mi NNW 25.3 mph 33.4 mph N/A   Clear
2:35 PM 35.4 °F 23.5 °F 16.7 °F 47% 30.27 in 10.0 mi NNW 24.2 mph 34.5 mph N/A   Clear
2:55 PM 35.8 °F 24.5 °F 16.3 °F 45% 30.28 in 10.0 mi NNW 21.9 mph 33.4 mph N/A   Scattered Clouds
3:15 PM 36.0 °F 25.6 °F 16.3 °F 45% 30.28 in 10.0 mi NNW 18.4 mph 29.9 mph N/A   Clear
3:35 PM 36.1 °F 24.4 °F 16.2 °F 44% 30.28 in 10.0 mi North 24.2 mph 28.8 mph N/A   Clear
3:55 PM 36.1 °F 25.0 °F 16.7 °F 45% 30.28 in 10.0 mi NNW 21.9 mph 28.8 mph N/A   Clear
4:15 PM 35.6 °F 24.2 °F 16.2 °F 45% 30.27 in 10.0 mi NNW 21.9 mph 25.3 mph N/A   Clear
4:35 PM 36.0 °F 25.0 °F 17.1 °F 46% 30.28 in 10.0 mi NNW 20.7 mph 26.5 mph N/A   Clear
4:55 PM 35.6 °F 25.2 °F 17.4 °F 48% 30.30 in 10.0 mi North 18.4 mph 26.5 mph N/A   Clear
5:15 PM 35.1 °F 23.8 °F 17.4 °F 49% 30.30 in 10.0 mi NNW 20.7 mph 24.2 mph N/A   Clear
5:35 PM 34.3 °F 23.9 °F 17.2 °F 50% 30.30 in 10.0 mi NNW 17.3 mph 23.0 mph N/A   Clear
5:55 PM 33.4 °F 23.9 °F 18.1 °F 54% 30.30 in 10.0 mi North 13.8 mph - N/A   Clear
6:15 PM 32.7 °F 22.5 °F 18.3 °F 55% 30.31 in 10.0 mi NNW 15.0 mph - N/A   Clear
6:35 PM 32.0 °F 23.6 °F 18.3 °F 57% 30.31 in 10.0 mi North 10.4 mph - N/A   Clear
6:55 PM 30.9 °F 22.2 °F 18.9 °F 61% 30.32 in 10.0 mi North 10.4 mph - N/A   Clear
7:15 PM 30.2 °F 21.3 °F 19.0 °F 63% 30.32 in 10.0 mi North 10.4 mph - N/A   Clear
7:35 PM 29.3 °F 21.5 °F 18.9 °F 65% 30.33 in 10.0 mi North 8.1 mph - N/A   Clear
7:55 PM 28.9 °F 20.4 °F 18.5 °F 65% 30.34 in 10.0 mi North 9.2 mph - N/A   Clear
8:15 PM 27.7 °F 20.4 °F 18.9 °F 69% 30.34 in 10.0 mi North 6.9 mph - N/A   Clear
8:35 PM 26.8 °F 20.2 °F 18.7 °F 72% 30.34 in 10.0 mi North 5.8 mph - N/A   Clear
8:55 PM 25.9 °F 19.2 °F 19.4 °F 76% 30.34 in 10.0 mi North 5.8 mph - N/A   Clear
9:15 PM 25.7 °F 18.0 °F 18.9 °F 75% 30.35 in 10.0 mi North 6.9 mph - N/A   Clear
9:35 PM 25.3 °F 18.5 °F 18.5 °F 75% 30.36 in 10.0 mi North 5.8 mph - N/A   Clear
9:55 PM 23.0 °F 15.8 °F 17.6 °F 80% 30.36 in 10.0 mi NNW 5.8 mph - N/A   Clear
10:15 PM 23.9 °F 15.0 °F 18.3 °F 79% 30.37 in 10.0 mi North 8.1 mph - N/A   Clear
10:35 PM 22.6 °F 16.5 °F 17.8 °F 82% 30.37 in 10.0 mi NW 4.6 mph - N/A   Clear
10:55 PM 22.5 °F 16.3 °F 17.8 °F 82% 30.38 in 10.0 mi NNW 4.6 mph - N/A   Clear
11:15 PM 21.4 °F 16.6 °F 17.2 °F 84% 30.37 in 10.0 mi NNW 3.5 mph - N/A   Clear
11:35 PM 21.9 °F 15.7 °F 18.0 °F 85% 30.37 in 10.0 mi NNW 4.6 mph - N/A   Clear
11:55 PM 20.1 °F 13.6 °F 16.5 °F 86% 30.37 in 10.0 mi NNW 4.6 mph - N/A   Clear